User: anonymous   Login
Location: Bakersfield
(35.3730°N, 119.0180°W)
Time: 05:46:14
(UTC-07:00)
Language:

Cosmos 1222 Rocket - Orbit

View from above orbital plane
View from above orbital plane
View from above satellite
View from above satellite

Ground track
Ground track

The orbit data is extracted from the following two-line orbital elements,

1 12072U 80093B   14303.46237441  .00061132  00000-0  61559-3 0  2685
2 12072 081.1804 159.1747 0008858 232.1366 127.9088 15.65124273867194
Epoch (UTC): 30 October 2014 11:05:49
Eccentricity: 0.0008858
inclination: 81.1804°
perigee height: 367 km
apogee height: 379 km
right ascension of ascending node: 159.1747°
argument of perigee: 232.1366°
revolutions per day: 15.65124273
mean anomaly at epoch: 127.9088°
orbit number at epoch: 86719

The dashed part of the orbit path shows where the satellite is in the earth's shadow,  

DLR